STARLINK-36698, 67709

Orbit data source: Space-Track

STARLINK-36698, 67709 is a payload satellite owned by SpaceX/Seattle (US) in SSO that was launched on Sat, 07 Feb 2026 UTC via an FALCON 9 launch vehicle from the Air Force Western Test Range (AFWTR). Payload-class satellites include a variety of spacecraft equipped with specific instruments for various scientific and technological missions. These include communications satellites like Starlink; space stations such as the ISS; scientific satellites like the Hubble; Earth observation satellites from companies like Planet Labs, Umbra, and HawkEye 360; GPS; miniature CubeSats for education and research; and military/defense satellites.

Loading next visibility...
Identifier
67709, 2026-025S
Orbit
SSO
Country
Flag of USUS
Related business
Manufacturer
SpaceX/Seattle
Mission
Operational spacecraft
Bus & Motor
STARLINK V2MO, Unknown motor
Mass
575 kg wet, ~530 kg dry
Launch date (UTC)
2026-02-07 (1 month ago)
Launch vehicle
FALCON 9
Launch site
Air Force Western Test Range (AFWTR)
Object type
Payload
Rocket body
Debris
Shape & HBR
Unknown
Radar Cross Section
RCS unknown

Expand to show TLE details & history
Last TLE update: 11 hours ago

TLE from 11 hours ago
0 STARLINK-36698
1 67709U 26025S   26071.84149078  .00321473  00000-0  20792-2 0  9993
2 67709  97.2841 183.6917 0001116 108.0181 252.1206 15.75154897  6449
Epoch: 2026-03-12T20:11Z
TLE epoch observation values (Epoch: 2026-03-12T20:11:44.803Z)
Latitude
-0.00001°
Longitude
70.26943°
Altitude
347.589 km
Speed
7.7 km/s
True Right ascension
12h 14m 46s
True Declination
0° 00' 00"
Sunlit
Object was in full shadow at epoch
Visualization orbit readout
Latitude
Unknown
Longitude
Unknown
Altitude
Unknown
Speed
Unknown
Apparent Right ascension
Unknown
Apparent Declination
Unknown
Sunlit
N/A
Visualization observer readout
Local Sidereal Time
11:58:10
Azimuth
Unknown
Elevation
Unknown
Doppler factor
Unknown
Orbital elements
Apogee altitude
341.828 km
Perigee altitude
340.328 km
Semi-major axis
6,719.215 km
Eccentricity
0.00011
Inclination
97.2841°
RAAN
183.6917°
Arg. of periapsis
108.0181°
True anomaly
252.10843°
Mean anomaly
252.1206°
Eccentric anomaly
252.11451°
Mean motion
3.94063 °/min
Orbital period
91.36 mins
BSTAR
0.0020792
Loading maneuver chart data...
Computing Atmospheric mass density...
Loading historical data...
Loading historical data...
Loading historical data...
Loading historical data...
Loading historical data...
Loading historical data...
Loading historical data...

Documentation

Showing up to 5 results
|